Regional Weather Roundup
Issued by NWS

Home | Current Version | Previous Version | Graphics & Text | Print | Product List | Glossary On
Versions: 1 2 3 4 5 6 7 8 9 10 11 12 13 14 15 16 17 18 19 20 21 22 23 24 25 26 27 28 29 30 31 32 33 34 35 36 37 38 39 40 41 42 43 44 45 46 47 48 49 50
000
ASUS43 KDTX 221701
RWRMI
MICHIGAN HOURLY REGIONAL WEATHER ROUNDUP
NATIONAL WEATHER SERVICE DETROIT/PONTIAC MI
100 PM EDT MON SEP 22 2014

NOTE: "FAIR" INDICATES FEW OR NO CLOUDS BELOW 12,000 FEET WITH NO
SIGNIFICANT WEATHER AND/OR OBSTRUCTION TO VISIBILITY.

MIZ047>049-052>055-059>063-066>070-074>076-081>083-221800-
SOUTHEAST LOWER MICHIGAN

CITY           SKY/WX    TMP DP  RH WIND       PRES   REMARKS
ADRIAN         SUNNY     57  41  55 NW8       30.23S
ALMA           SUNNY     58  42  57 NW10G16   30.22S
ANN ARBOR      SUNNY     57  41  55 NW8       30.21S
BAD AXE        MOSUNNY   53  42  66 NW13      30.19R
CARO           MOSUNNY   55  41  61 NW9       30.20S
DETROIT CITY   SUNNY     58  39  49 NW7       30.21S
DETROIT        MOSUNNY   57  41  55 VRB7      30.21F
FLINT          MOSUNNY   56  41  57 W10       30.22R
GROSSE ILE     MOSUNNY   57  43  58 NW5       30.20S
HILLSDALE      SUNNY     57  40  53 NW6       30.23R
HOWELL         MOSUNNY   55  42  60 W10G16    30.22R

CITY           SKY/WX    TMP DP  RH WIND       PRES   REMARKS
JACKSON        SUNNY     57  42  57 VRB6      30.23S
LAMBERTVILLE   MOSUNNY   57  41  54 N5        30.23R
LANSING        SUNNY     56  41  57 W8        30.24R
LAPEER         PTSUNNY   53  40  61 NW9       30.20S
MASON          SUNNY     55  41  59 NW8       30.23R
MONROE         MOSUNNY   57  43  58 NW8       30.20S
MT. CLEMENS    MOSUNNY   56  39  53 N6        30.18S
PONTIAC        MOSUNNY   55  39  54 NW16      30.20R
PORT HOPE        N/A     53  40  61 NW7       30.17R
PORT HURON     CLOUDY    52  43  71 NW7       30.19S
TRI CITIES     SUNNY     57  42  57 NW10      30.22S
TROY           PTSUNNY   57  38  49 W5        30.22S
SAGINAW HB     MOSUNNY   57  41  54 W7        30.20F
$$
MIZ043>046-050>051-056>058-064>065-071>073-077>080-221800-
SOUTHWEST LOWER MICHIGAN

CITY           SKY/WX    TMP DP  RH WIND       PRES   REMARKS
BATTLE CREEK   SUNNY     58  41  53 NW9       30.25S
BENTON HARBOR  MOSUNNY   56  45  66 VRB6      30.28R
BIG RAPIDS     PTSUNNY   58  47  68 W8        30.22S
COLDWATER      SUNNY     59  41  51 W6        30.24S
FREMONT        FAIR      59  44  56 W9        30.24S
HOLLAND        MOSUNNY   60  46  59 VRB7      30.27S
GRAND RAPIDS   MOSUNNY   59  44  57 VRB3      30.25S
IONIA          FAIR      58  42  56 W9        30.23S
KALAMAZOO      SUNNY     58  41  53 NW7G16    30.26S
LUDINGTON      SUNNY     57  47  69 SW8       30.24S
MARSHALL       SUNNY     57  40  54 W12G20    30.24R
MOUNT PLEASANT MOSUNNY   58  42  56 NW8       30.21S
MUSKEGON       MOSUNNY   58  44  60 W12       30.26S
SOUTH HAVEN    MOSUNNY   58  46  63 NW12G17   30.28R
$$
MIZ016>042-221800-
NORTHERN LOWER MICHIGAN

CITY           SKY/WX    TMP DP  RH WIND       PRES   REMARKS
ALPENA         SUNNY     55  40  56 W7G17     30.15S
BEAVER ISLAND  CLOUDY    56  48  73 SW12G17   30.16S
BELLAIRE       CLOUDY    57  45  63 W8        30.19F
CADILLAC       MOSUNNY   57  46  66 W9G16     30.19F
CHARLEVOIX     CLOUDY    54  47  78 SW14      30.20S
FRANKFORT      CLOUDY    56  45  66 SW9       30.22S
GAYLORD        MOSUNNY   54  41  61 W10       30.16F
GRAYLING       SUNNY     58  44  59 NW6       30.18F
HARBOR SPRINGS CLOUDY    55  46  70 W9G16     30.16F
HOUGHTON LAKE  MOSUNNY   55  43  63 W10       30.19S
MANISTEE       SUNNY     55  43  62 W8        30.23F
OSCODA         SUNNY     56  40  55 W9        30.16S
PELLSTON       CLOUDY    55  45  68 W9G18     30.16S
ROGERS CITY    SUNNY     55  43  62 W12       30.15F
TRAVERSE CITY  PTSUNNY   58  44  60 W8        30.19S
$$
MIZ007>008-015-221800-
EASTERN UPPER MICHIGAN

CITY           SKY/WX    TMP DP  RH WIND       PRES   REMARKS
KINROSS        PTSUNNY   55  43  62 W10G17    30.10F
MACKINAC ISLAN CLOUDY    54  45  72 W14G23    30.13F
NEWBERRY       SUNNY     56  44  65 SW9G16    30.11F
S. S. MARIE    PTSUNNY   54  39  57 W13       30.09F
$$
MIZ004>006-011>014-085-221800-
CENTRAL UPPER MICHIGAN

CITY           SKY/WX    TMP DP  RH WIND       PRES   REMARKS
MANISTIQUE     SUNNY     58  49  71 SW7       30.13F
ESCANABA       MOSUNNY   61  48  63 W8        30.15F
MENOMINEE      CLOUDY    59  48  67 W7        30.18F
SAWYER-GWINN   PTSUNNY   61  46  59 W8        30.13F
$$
MIZ001>003-009>011-084-221800-
WESTERN UPPER MICHIGAN

CITY           SKY/WX    TMP DP  RH WIND       PRES   REMARKS
IRON MOUNTAIN  MOSUNNY   64  46  52 NW10G21   30.15F
HOUGHTON       MOSUNNY   62  49  62 W16       30.11F
COPPER HARBOR    N/A     63  47  55 NW12G23   30.08F
IRONWOOD       MOSUNNY   61  48  63 W9        30.17S
$$

ABBREVIATIONS USED IN REMARKS
   TC - TEMPERATURE IN CELSIUS
  WCI - WIND CHILL INDEX
   HX - HEAT INDEX
  VSB - VISIBILITY



USA.gov is the U.S. government's official web portal to all federal, state and local government web resources and services.